Location: Knowlton
(51.2333°N, 1.2667°E)
Time: 09:17:08
(UTC+00:00)

ATLAS 2AS CENTAUR R/B - Pass Details

Date: 18 April 2021
Orbit: 949 x 1263 km, 63.7° (Epoch: 02 May)

Event Time Altitude Azimuth Distance (km) Brightness Sun altitude
Rises 21:50:15 0° 256° (WSW) 4,216 6.1 -22.1°
Reaches altitude 10° 21:53:15 10° 263° (W) 3,246 5.5 -22.3°
Maximum altitude 22:00:43 44° 334° (NNW) 1,662 4.1 -22.9°
Drops below altitude 10° 22:07:56 10° 45° (NE) 3,128 5.3 -23.5°
Sets 22:10:47 0° 53° (NE) 4,051 5.8 -23.7°
